Tracking 18840 objects as of 17-November-2017
HD Live streaming from Space Station
objects crossing your sky now

FENGYUN 1C DEB

Track FENGYUN 1C DEB now!
10-day predictions


NORAD ID: 30398
Int'l Code: 1999-025ADM
Perigee: 856.7 km
Apogee: 1,117.9 km
Inclination: 99.7 °
Period: 104.7 minutes
Semi major axis: 7358 km
RCS: 0.0135 m2 (small)
Launch date: May 10, 1999
Source: People's Republic of China (PRC)
Launch site: Taiyaun Space Center, China (TSC)

Note: This is SATELLITE DEBRIS
aabbcc
Your satellite tracking list
Your tracking list is empty




NASA's NSSDC Master Catalog

Two Line Element Set (TLE):
1 30398U 99025ADM 17320.64745118  .00000258  00000-0  28280-3 0  9995
2 30398  99.7455  88.5861 0177536   9.8323 105.1344 13.75423265542270
Source of the keplerian elements: AFSPC